Weather History for KTAN - October, 2012

Change the Weather History Date:

Thursday, October 18, 2012

  Actual Average Record
Temperature  
Mean Temperature 50 °F -  
Max Temperature 66 °F 60 °F 77 °F (2007)
Min Temperature 34 °F 39 °F 21 °F (1978)
Degree Days  
Heating Degree Days 15    
Moisture  
Dew Point 40 °F    
Average Humidity 87    
Maximum Humidity 97    
Minimum Humidity 43    
Precipitation  
Precipitation 0.00 in - - ()
Sea Level Pressure  
Sea Level Pressure 30.07 in    
Wind  
Wind Speed 1 mph (SE)    
Max Wind Speed 9 mph    
Max Gust Speed -    
Visibility 4 miles    
Events Fog    
Averages and records for this station are not official NWS values.
T = Trace of Precipitation, MM = Missing Value Source: NWS Daily Summary

Daily Weather History Graph

Daily Weather History Graph

Search for Another Location

Airport or City:

Trip Planner

Search our weather history database for the weather conditions in past years. The results will help you decide how hot, cold, wet, or windy it might be!

Date:

Astronomy

Oct. 18, 2012 Rise Set
Actual Time 7:00 AM EDT 5:57 PM EDT
Civil Twilight 6:32 AM EDT 6:25 PM EDT
Nautical Twilight 5:59 AM EDT 6:57 PM EDT
Astronomical Twilight 5:27 AM EDT 7:29 PM EDT
Moon 10:42 AM EDT (10/18) 8:25 PM EDT (10/18)
Length of Visible Light 11h 53m
Length of Day
10h 56m
Waxing Crescent, 14% of the Moon is Illuminated
Oct 18
Waxing Crescent
Oct 21
First Quarter
Oct 29
Full
Nov 6
Last Quarter
Nov 13
New

Hourly Weather History & Observations

Time (EDT) Temp. Dew Point Humidity Pressure Visibility Wind Dir Wind Speed Gust Speed Precip Events Conditions
12:44 AM 39.9 °F 37.9 °F 93% 30.02 in 1.8 mi Calm Calm - N/A   Clear
12:52 AM 39.9 °F 37.9 °F 93% 30.02 in 1.2 mi Calm Calm - N/A   Clear
1:03 AM 39.9 °F 37.9 °F 93% 30.02 in 1.5 mi Calm Calm - N/A   Clear
1:11 AM 39.0 °F 37.0 °F 93% 30.02 in 1.0 mi Calm Calm - N/A   Clear
1:42 AM 39.0 °F 37.0 °F 93% 30.03 in 0.8 mi Calm Calm - N/A   Clear
1:52 AM 39.0 °F 37.0 °F 93% 30.03 in 0.8 mi Calm Calm - N/A   Clear
1:58 AM 37.9 °F 36.0 °F 93% 30.03 in 2.0 mi Calm Calm - N/A   Clear
2:05 AM 37.9 °F 36.0 °F 93% 30.03 in 6.0 mi Calm Calm - N/A   Clear
2:24 AM 37.9 °F 36.0 °F 93% 30.03 in 1.8 mi Calm Calm - N/A   Clear
2:52 AM 37.0 °F 35.1 °F 93% 30.03 in 0.8 mi Calm Calm - N/A   Clear
3:03 AM 36.0 °F 35.1 °F 97% 30.02 in 1.8 mi Calm Calm - N/A   Clear
3:05 AM 37.0 °F 35.1 °F 93% 30.02 in 3.0 mi Calm Calm - N/A   Clear
3:52 AM 36.0 °F 34.0 °F 93% 30.04 in 6.0 mi Calm Calm - N/A   Clear
4:05 AM 36.0 °F 34.0 °F 93% 30.03 in 2.0 mi Calm Calm - N/A   Clear
4:15 AM 36.0 °F 34.0 °F 93% 30.04 in 4.0 mi Calm Calm - N/A   Clear
4:40 AM 35.1 °F 33.1 °F 92% 30.04 in 2.5 mi Calm Calm - N/A   Clear
4:48 AM 35.6 °F 33.8 °F 93% 30.04 in 5.0 mi Calm Calm - N/A   Clear
4:52 AM 36.0 °F 33.1 °F 89% 30.04 in 5.0 mi Calm Calm - N/A   Clear
5:02 AM 35.1 °F 33.1 °F 92% 30.04 in 1.8 mi Calm Calm - N/A   Clear
5:14 AM 35.1 °F 33.1 °F 92% 30.04 in 2.0 mi Calm Calm - N/A   Clear
5:30 AM 35.1 °F 33.1 °F 92% 30.05 in 5.0 mi Calm Calm - N/A   Clear
5:52 AM 35.1 °F 33.1 °F 92% 30.05 in 9.0 mi Calm Calm - N/A   Clear
6:52 AM 34.0 °F 32.0 °F 92% 30.07 in 8.0 mi Calm Calm - N/A   Clear
7:52 AM 37.9 °F 36.0 °F 93% 30.08 in 8.0 mi Calm Calm - N/A   Clear
8:52 AM 48.0 °F 43.0 °F 83% 30.10 in 10.0 mi Calm Calm - N/A   Clear
9:52 AM 59.0 °F 48.0 °F 67% 30.11 in 10.0 mi East 3.5 mph - N/A   Clear
10:52 AM 62.1 °F 48.0 °F 60% 30.09 in 10.0 mi Calm Calm - N/A   Clear
11:52 AM 64.0 °F 46.9 °F 54% 30.09 in 10.0 mi ESE 6.9 mph - N/A   Partly Cloudy
12:52 PM 64.9 °F 46.9 °F 52% 30.08 in 10.0 mi Variable 5.8 mph - N/A   Partly Cloudy
1:52 PM 64.9 °F 44.1 °F 47% 30.08 in 10.0 mi Variable 4.6 mph - N/A   Clear
2:52 PM 66.0 °F 43.0 °F 43% 30.06 in 10.0 mi ESE 9.2 mph - N/A   Clear
3:52 PM 64.0 °F 46.0 °F 52% 30.07 in 10.0 mi Variable 6.9 mph - N/A   Clear
4:52 PM 62.1 °F 46.9 °F 58% 30.07 in 10.0 mi SSE 6.9 mph - N/A   Clear
5:52 PM 57.0 °F 48.0 °F 72% 30.06 in 10.0 mi SSE 3.5 mph - N/A   Clear
6:52 PM 54.0 °F 48.0 °F 80% 30.08 in 10.0 mi SE 3.5 mph - N/A   Clear
7:52 PM 51.1 °F 46.9 °F 86% 30.09 in 10.0 mi Calm Calm - N/A   Partly Cloudy
8:32 PM 46.0 °F 44.1 °F 93% 30.09 in 1.5 mi Calm Calm - N/A   Clear
8:35 PM 45.0 °F 43.0 °F 93% 30.09 in 0.8 mi Calm Calm - N/A   Clear
8:52 PM 45.0 °F 43.0 °F 93% 30.10 in 0.5 mi Calm Calm - N/A Fog Fog
9:02 PM 44.1 °F 42.1 °F 93% 30.10 in 1.0 mi Calm Calm - N/A   Mist
9:09 PM 44.1 °F 42.1 °F 93% 30.11 in 0.5 mi Calm Calm - N/A Fog Fog
9:40 PM 44.1 °F 43.0 °F 96% 30.11 in 1.2 mi Calm Calm - N/A   Scattered Clouds
9:43 PM 44.1 °F 42.1 °F 93% 30.11 in 3.0 mi Calm Calm - N/A   Scattered Clouds
9:52 PM 43.0 °F 41.0 °F 93% 30.12 in 1.8 mi Calm Calm - N/A   Scattered Clouds
9:54 PM 43.0 °F 41.0 °F 93% 30.11 in 1.0 mi Calm Calm - N/A   Mist
10:02 PM 43.0 °F 41.0 °F 93% 30.11 in 0.5 mi Calm Calm - N/A Fog Fog
10:11 PM 44.1 °F 42.1 °F 93% 30.12 in 1.2 mi Calm Calm - N/A   Partly Cloudy
10:13 PM 43.0 °F 41.0 °F 93% 30.12 in 3.0 mi Calm Calm - N/A   Partly Cloudy
10:19 PM 43.0 °F 41.0 °F 93% 30.12 in 1.8 mi Calm Calm - N/A   Scattered Clouds
10:24 PM 43.0 °F 41.0 °F 93% 30.11 in 0.8 mi Calm Calm - N/A   Scattered Clouds
10:32 PM 43.0 °F 41.0 °F 93% 30.11 in 1.2 mi Calm Calm - N/A   Scattered Clouds
10:52 PM 42.1 °F 39.9 °F 92% 30.12 in 0.5 mi Calm Calm - N/A Fog Fog
11:00 PM 43.0 °F 39.9 °F 89% 30.12 in 0.5 mi Calm Calm - N/A Fog Fog
11:15 PM 42.1 °F 41.0 °F 96% 30.11 in 1.2 mi Calm Calm - N/A   Partly Cloudy
11:18 PM 41.0 °F 39.9 °F 96% 30.10 in 2.5 mi Calm Calm - N/A   Partly Cloudy
11:25 PM 42.1 °F 39.9 °F 92% 30.10 in 10.0 mi Calm Calm - N/A   Partly Cloudy
11:52 PM 43.0 °F 41.0 °F 93% 30.08 in 3.0 mi Calm Calm - N/A   Clear
11:54 PM 42.1 °F 41.0 °F 96% 30.08 in 1.8 mi Calm Calm - N/A   Clear